Home > Weather > Behbahan > Past weeks

Flag for Iran Weather for the Past 2 Weeks in Behbahan, Iran

Now
55 °F

Clear.


Feels Like: 55 °F
Forecast: 46 / 65 °F
Wind: No wind

Location: Gach Saran Du Gunbadan

Current Time: Feb 6, 2016 at 7:51:14 PM

Latest Report: Feb 6, 2016 at 7:30 PM


Visibility: 10 mi

Pressure: 30.07 "Hg

Humidity: 41%

Dew point: 32 °F

Location of BehbahanLocation

Historic Weather in Behbahan — Graph

°F

Behbahan Temperature Yesterday

Maximum temperature yesterday: 72 °F (at 2:30 PM)
Minimum temperature yesterday: 36 °F (at 6:30 AM)
Average temperature yesterday: 53 °F

High & Low Weather Summary for the Past Weeks

 TemperatureHumidityPressure
High73 °F (Feb 6, 1:30 PM)100% (Jan 25, 3:30 AM)30.36 "Hg (Jan 25, 3:30 AM)
Low30 °F (Jan 29, 6:30 AM)15% (Feb 5, 1:30 PM)30.01 "Hg (Jan 25, 2:30 PM)
Average50 °F64%30.16 "Hg
* Reported Jan 22 6:30 PM — Feb 6 6:30 PM, Behbahan, Weather by CustomWeather, © 2016

Note: Actual official high and low records may vary slightly from our data, if they occured in-between our weather recording intervals... More about our weather records

Advertising

Behbahan Weather History for the Previous 24 Hours

 ConditionsComfort  
Time TempWeatherWind HumidityBarometerVisibility
6:30 PM
Sat, Feb 6
59 °FClear.No wind36%30.07 "Hg10 mi
5:30 PM66 °FSunny.No wind26%30.07 "Hg10 mi
4:30 PM70 °FSunny.No wind23%30.04 "Hg10 mi
3:30 PM72 °FSunny.No wind20%30.04 "Hg10 mi
2:30 PM72 °FSunny.No wind19%30.07 "Hg10 mi
1:30 PM73 °FSunny.No wind16%30.09 "Hg10 mi
12:30 PM68 °FSunny.9 mph23%30.12 "Hg10 mi
11:30 AM64 °FSunny.No wind34%30.15 "Hg10 mi
10:30 AM61 °FSunny.No wind42%30.15 "Hg10 mi
9:30 AM55 °FSunny.No wind47%30.15 "Hg10 mi
8:30 AM50 °FSunny.No wind62%30.15 "Hg10 mi
7:30 AM37 °FSunny.No wind81%30.15 "Hg10 mi
6:30 AM36 °FClear.No wind87%30.15 "Hg10 mi
5:30 AM37 °FClear.No wind81%30.15 "Hg10 mi
4:30 AM37 °FClear.No wind87%30.15 "Hg10 mi
3:30 AM39 °FClear.No wind81%30.15 "Hg10 mi
2:30 AM41 °FClear.No wind76%30.18 "Hg10 mi
1:30 AM41 °FClear.No wind76%30.18 "Hg10 mi
12:30 AM45 °FClear.No wind71%30.21 "Hg10 mi
11:30 PM
Fri, Feb 5
46 °FClear.No wind66%30.21 "Hg10 mi
10:30 PM46 °FClear.No wind66%30.24 "Hg10 mi
9:30 PM50 °FClear.No wind62%30.24 "Hg10 mi
8:30 PM52 °FClear.No wind54%30.24 "Hg10 mi
7:30 PM55 °FClear.No wind41%30.24 "Hg10 mi
Weather by CustomWeather, © 2016

See weather overviewHow to use our weather pages